Regional Weather Roundup
Issued by NWS Glasgow, MT

Home | Current Version | Previous Version | Text Only | Print | Product List | Glossary On
Versions: 1 2 3 4 5 6 7 8 9 10 11 12 13 14 15 16 17 18 19 20 21 22 23 24 25 26 27 28 29 30 31 32 33 34 35 36 37 38 39 40 41 42 43 44 45 46 47
000
ASUS45 KGGW 252015
RWRGGW
HOURLY WEATHER ROUNDUP FOR NORTHEAST MONTANA
NATIONAL WEATHER SERVICE GLASGOW MONTANA
100 PM MST THU DEC 25 2014

NOTE: "FAIR" INDICATES FEW OR NO CLOUDS BELOW 12,000 FEET WITH NO
SIGNIFICANT WEATHER AND/OR OBSTRUCTIONS TO VISISBILITY.

NORTHEAST MONTANA


CITY           SKY/WX    TMP DP  RH WIND       PRES   REMARKS
GLASGOW        CLOUDY    24  16  71 NW14      29.93R
PLENTYWOOD       N/A     22  19  89 NW15        N/A
WOLF POINT     CLOUDY    25  17  72 N12       29.95R
JORDAN           N/A     26  19  74 NW14      29.91R
WINNETT          N/A     26  23  88 NW7         N/A
SIDNEY         CLOUDY    27  18  69 NW15      29.91S
GLENDIVE       CLOUDY    25  18  74 N15       29.90R
MALTA            N/A     29  20  69 N7          N/A
SCOBEY           N/A     18   9  68 NW17G24   29.90R

FORT PECK REPORTS


CITY           SKY/WX    TMP DP  RH WIND       PRES   REMARKS
FORT PECK        N/A     26  18  71 NW16        N/A
THE PINES        N/A     26  20  77 NW7         N/A

SOUTHEAST MONTANA


CITY           SKY/WX    TMP DP  RH WIND       PRES   REMARKS
BILLINGS       CLOUDY    26  21  81 NE8       29.88S
MILES CITY     CLOUDY    25  20  81 N12       29.90R
BAKER          CLOUDY    22  18  85 N14       29.85R
LIVINGSTON     CLOUDY    24  18  77 E9        29.84R

CENTRAL MONTANA


CITY           SKY/WX    TMP DP  RH WIND       PRES   REMARKS
HAVRE          CLOUDY    25  19  78 W10       29.96S
LEWISTOWN      CLOUDY    22  17  81 NW9       29.88S
GREAT FALLS    CLOUDY    24  21  88 W3        29.92F
CUT BANK       CLOUDY    16  14  92 CALM      29.89F
HELENA         CLOUDY    27  20  75 W8        29.91S
BUTTE          CLOUDY    23  14  68 NW9       29.84S
BOZEMAN        CLOUDY    25  20  81 SW5       29.84S

WESTERN MONTANA


CITY           SKY/WX    TMP DP  RH WIND       PRES   REMARKS
MISSOULA       CLOUDY    29  28  96 CALM      29.96S
KALISPELL      NOT AVBL

NORTH DAKOTA


CITY           SKY/WX    TMP DP  RH WIND       PRES   REMARKS
WILLISTON      CLOUDY    26  19  74 NW16      29.88R
DICKINSON      CLOUDY    24  18  77 NW20      29.81R
MINOT          CLOUDY    28  22  78 NW17      29.81R
BISMARCK       CLOUDY    28  21  75 NW14      29.83R

SOUTHERN SASKATCHEWAN


CITY           SKY/WX    TMP DP  RH WIND       PRES   REMARKS
REGINA         FLURRIES  12   7  79 NW18      29.93R WCI  -5
ESTEVAN        FLURRIES  23  18  80 NW20      29.87R
SWIFT CURRENT  LGT SNOW   7   5  92 NW18      29.91F WCI -12



USA.gov is the U.S. government's official web portal to all federal, state and local government web resources and services.